Regional Weather Roundup
Issued by NWS

Home | Current Version | Previous Version | Text Only | Print | Product List | Glossary Off
Versions: 1 2 3 4 5 6 7 8 9 10 11 12 13 14 15 16 17 18 19 20 21 22 23 24 25 26 27 28 29 30 31 32 33 34 35 36 37 38 39 40 41 42 43 44 45 46 47 48 49 50

979
ASUS43 KLSX 240510
RWRMO

WEATHER SUMMARY FOR MISSOURI
NATIONAL WEATHER SERVICE SPRINGFIELD MO
1100 PM CST MON JAN 23 2017

NOTE: "FAIR" INDICATES FEW OR NO CLOUDS BELOW 12,000 FEET WITH NO
       SIGNIFICANT WEATHER AND/OR OBSTRUCTIONS TO VISIBILITY.
       CURRENT SKY AND/OR WEATHER CONDITIONS ARE NOT AVAILABLE FOR
       CHILLICOTHE AND FARMINGTON.

MOZ001>031-035>038-043-044-053-054-240600-
...NORTHERN AND WESTERN MISSOURI...

CITY           SKY/WX    TMP DP  RH WIND       PRES   REMARKS
KANSAS CTY INT CLEAR     33  29  85 E9        29.83S FOG     WCI  25
KANSAS C DTWN  CLEAR     32  30  92 NE5       29.84S WCI  27
LEE`S SUMMIT   CLEAR     32  30  92 E6        29.83F WCI  26
ST JOSEPH      CLEAR     31  29  92 E6        29.85S WCI  25
CHILLICOTHE      N/A     27  25  92 CALM      29.88S
KIRKSVILLE     CLOUDY    32  29  88 CALM      29.87F

$$
MOZ066>068-077>081-088>096-101>105-240600-
...SOUTHWEST MISSOURI...

CITY           SKY/WX    TMP DP  RH WIND       PRES   REMARKS
SPRINGFIELD    CLEAR     35  30  82 SE6       29.82R
JOPLIN         CLEAR     38  33  82 SE9       29.80F
BRANSON        CLEAR     39  32  75 CALM      29.85R

$$
MOZ032>034-039>042-045>050-055>058-069>072-240600-
...CENTRAL MISSOURI...

CITY           SKY/WX    TMP DP  RH WIND       PRES   REMARKS
COLUMBIA       CLOUDY    35  31  85 NE5       29.86F
JEFFERSON CITY CLEAR     30  27  88 CALM      29.88F
ROLLA          FOG       27  27 100 NE3       29.84F VSB 1
SEDALIA        CLEAR     31  29  92 E3        29.87R
WHITEMAN AFB   CLEAR     32  32 100 E3        29.84S
WARRENSBURG    CLEAR     30  28  93 NE6       29.85S FOG     WCI  24
OSAGE BEACH    CLEAR     29  28  96 NE3       29.86F

$$
MOZ051-052-059>065-240600-
...EAST CENTRAL MISSOURI...

CITY           SKY/WX    TMP DP  RH WIND       PRES   REMARKS
ST LOUIS INTL  CLOUDY    41  31  67 NW5       29.88S
SPIRIT OF STL  CLOUDY    41  34  76 NW5       29.88R
ST CHARLES     CLOUDY    39  34  82 N6        29.88S

$$
MOZ072>076-082>087-097>100-106>115-240600-
...SOUTH CENTRAL AND SOUTHEAST MISSOURI...

CITY           SKY/WX    TMP DP  RH WIND       PRES   REMARKS
CAPE GIRARDEAU CLEAR     33  31  92 W5        29.88R WCI  29
FARMINGTON     CLEAR     29  27  92 CALM      29.87S FOG
POPLAR BLUFF   CLEAR     34  33  96 CALM      29.88S
WEST PLAINS    CLEAR     32  29  88 CALM      29.85S

$$




USA.gov is the U.S. government's official web portal to all federal, state and local government web resources and services.